[[{"header":{"parameterUnit":"m.s-1","parameterCategory":1,"la1":30.2991,"la2":30.254,"lo1":-89.0895,"lo2":-89.0444,"dx":0.0017,"dy":0.0017,"nx":28,"ny":28,"refTime":"2023-01-10T15:00:00:Z","depth":0,"parameterNumber":2,"parameterNumberName":"U-component_of_WINDS"},"data":[0,0,0,0,0,0,0,0,0,0,0,0,0,0,0,0,0,0,0,0,0,0,0,0,0,0,0,0,0,0,0,0,0,0,0,0,0,0,0,0,0,0,0,0,0,0,0,0,0,0,0,0,0,0,0,0,0,0,-0.3977,-0.3977,0,-0.3917,-0.3917,-0.3916,-0.3889,-0.3889,-0.3889,-0.3889,-0.3829,-0.3828,-0.3826,0,0,0,0,0,0,0,0,0,0,0,0,0,-0.4071,-0.407,-0.3977,-0.3977,-0.3976,-0.3917,-0.3917,-0.3916,-0.3889,-0.3889,-0.3889,-0.3889,-0.383,-0.3828,-0.3826,0,0,0,0,0,0,0,0,0,0,0,0,0,-0.4023,-0.4069,-0.3977,-0.3955,-0.3953,-0.3917,-0.3916,-0.3915,-0.3889,-0.3889,-0.3889,-0.3889,-0.3831,-0.3828,-0.3826,-0.3808,0,0,-0.3818,-0.3817,0,0,0,0,0,0,0,0,-0.4026,-0.4019,-0.3959,-0.3957,-0.3954,-0.3911,-0.3928,-0.388,-0.3889,-0.3913,-0.3889,-0.3889,-0.3856,-0.3852,-0.384,-0.3805,-0.3803,-0.3818,-0.3816,-0.3815,-0.3815,0,0,0,0,0,0,0,-0.4029,-0.4022,-0.3954,-0.3959,-0.3955,-0.3949,-0.3943,-0.3918,-0.3885,-0.3911,-0.3909,-0.3902,-0.3855,-0.3843,-0.3839,-0.3802,-0.3818,-0.3816,-0.3814,-0.3813,-0.375,-0.375,0,0,0,0,0,0,-0.4036,-0.4025,-0.3956,-0.3952,-0.3991,-0.3948,-0.394,-0.3925,-0.3885,-0.3879,-0.3902,-0.3901,-0.3847,-0.3842,-0.3837,-0.3814,-0.3815,-0.3813,-0.3811,-0.375,-0.375,-0.375,0,0,0,0,0,0,-0.4038,-0.403,-0.3958,-0.3988,-0.3978,-0.3946,-0.3929,-0.3923,-0.3911,-0.3878,-0.3873,-0.3896,-0.3847,-0.384,-0.3815,-0.3811,-0.3812,-0.3809,-0.3751,-0.375,-0.375,-0.3768,0,0,0,0,0,0,-0.4041,-0.4031,-0.4023,-0.3988,-0.3977,-0.3937,-0.3928,-0.3922,-0.3907,-0.3905,-0.3871,-0.3865,-0.3846,-0.3819,-0.3813,-0.3808,-0.3808,-0.3751,-0.375,-0.375,-0.3767,-0.3768,-0.3769,0,0,0,0,0,-0.4044,-0.4031,-0.4023,-0.4015,-0.3966,-0.3937,-0.3931,-0.3909,-0.3906,-0.3899,-0.3878,-0.3866,-0.3813,-0.3817,-0.381,-0.3804,-0.3751,-0.3751,-0.375,-0.3767,-0.3768,-0.3769,0,0,0,0,0,0,-0.4067,-0.4026,-0.4016,-0.3991,-0.3968,-0.3932,-0.3922,-0.391,-0.3887,-0.3887,-0.3861,-0.3854,-0.3831,-0.3815,-0.3821,-0.3785,-0.3781,-0.3779,-0.3796,-0.3797,-0.3797,-0.3802,-0.3805,0,0,0,0,0,-0.4069,-0.4048,-0.4013,-0.3994,-0.3983,-0.3955,-0.3941,-0.3926,-0.3901,-0.3891,-0.3869,-0.3845,-0.3823,-0.3809,-0.3787,-0.3765,-0.3758,-0.3757,-0.3758,-0.3759,-0.3757,-0.3745,-0.3745,-0.3749,-0.3749,-0.3749,0,0,-0.4073,-0.4048,-0.4036,-0.3998,-0.3978,-0.3958,-0.3946,-0.3925,-0.391,-0.3888,-0.3863,-0.3846,-0.3819,-0.3795,-0.3784,-0.3781,-0.3755,-0.3758,-0.3759,-0.3757,-0.3745,-0.3744,-0.3744,-0.3748,-0.3748,-0.3749,0,0,-0.4069,-0.4048,-0.403,-0.401,-0.398,-0.3962,-0.3958,-0.3924,-0.3912,-0.3887,-0.387,-0.3852,-0.3815,-0.3796,-0.3781,-0.3772,-0.376,-0.3765,-0.3769,-0.3757,-0.3757,-0.3756,-0.3753,-0.3752,-0.3764,-0.3764,-0.3764,0,-0.4078,-0.4045,-0.4022,-0.4002,-0.3986,-0.3965,-0.3947,-0.393,-0.3894,-0.3884,-0.3881,-0.3834,-0.3814,-0.3786,-0.3784,-0.3773,-0.3768,-0.3769,-0.3759,-0.3758,-0.3757,-0.3754,-0.3753,-0.3765,-0.3765,-0.3765,-0.3765,0,-0.4058,-0.4036,-0.4025,-0.3991,-0.3974,-0.3955,-0.3929,-0.3915,-0.3902,-0.3884,-0.386,-0.3835,-0.3808,-0.38,-0.3787,-0.3771,-0.377,-0.3763,-0.3759,-0.3758,-0.3754,-0.3753,-0.3766,-0.3766,-0.3766,-0.3765,0,0,-0.4066,-0.402,-0.4016,-0.4001,-0.3966,-0.3949,-0.393,-0.3903,-0.3891,-0.3868,-0.3851,-0.3821,-0.3814,-0.3798,-0.3783,-0.3773,-0.3768,-0.3767,-0.3766,-0.3768,-0.3748,-0.3753,-0.3752,-0.376,-0.376,-0.3759,-0.3751,0,-0.4058,-0.4021,-0.4,-0.3972,-0.3952,-0.3932,-0.3916,-0.3893,-0.3877,-0.3858,-0.3839,-0.3818,-0.3811,-0.3801,-0.379,-0.377,-0.3763,-0.3771,-0.3745,-0.3744,-0.3752,-0.375,-0.3755,-0.3748,-0.3749,-0.3749,-0.3749,0,-0.4043,-0.4019,-0.3989,-0.3958,-0.3949,-0.3934,-0.3908,-0.389,-0.3865,-0.3853,-0.3835,-0.3821,-0.38,-0.3798,-0.377,-0.3776,-0.3764,-0.3753,-0.3752,-0.3748,-0.3746,-0.3746,-0.3745,-0.3744,-0.3746,-0.3746,-0.3747,0,-0.4052,-0.4013,-0.399,-0.3977,-0.394,-0.393,-0.3915,-0.3889,-0.3875,-0.3852,-0.3843,-0.3819,-0.3805,-0.3788,-0.3767,-0.3767,-0.3741,-0.3737,-0.3732,-0.3732,-0.3726,-0.3727,-0.3723,-0.372,-0.372,-0.372,-0.372,0,-0.4044,-0.4027,-0.3993,-0.3979,-0.3959,-0.3936,-0.3917,-0.39,-0.3878,-0.3861,-0.3844,-0.3828,-0.3802,-0.3784,-0.3768,-0.3747,-0.3742,-0.3732,-0.3728,-0.3733,-0.3735,-0.3725,-0.3725,-0.3719,-0.3719,-0.3719,-0.3719,0,-0.405,-0.4027,-0.4001,-0.3968,-0.396,-0.3947,-0.3919,-0.3905,-0.3888,-0.3866,-0.386,-0.3833,-0.3811,-0.3789,-0.3758,-0.3748,-0.3727,-0.3722,-0.3736,-0.3733,-0.3729,-0.373,-0.3718,-0.3716,-0.3715,-0.3715,-0.3715,0,-0.4047,-0.4033,-0.3999,-0.3986,-0.397,-0.395,-0.3935,-0.3912,-0.3897,-0.3868,-0.3858,-0.3834,-0.3813,-0.3778,-0.3757,-0.3734,-0.3728,-0.3725,-0.3724,-0.373,-0.3727,-0.3728,-0.3727,-0.3726,-0.3726,-0.3726,-0.3726,0,-0.4044,-0.4033,-0.4011,-0.3986,-0.3969,-0.3948,-0.3927,-0.3917,-0.389,-0.3875,-0.3851,-0.3836,-0.3805,-0.3782,-0.3757,-0.3741,-0.3729,-0.3727,-0.3724,-0.3729,-0.3738,-0.3733,-0.3737,-0.3727,-0.3727,-0.3727,-0.3727,-0.3727,-0.4045,-0.4031,-0.4005,-0.3982,-0.3964,-0.3945,-0.393,-0.3911,-0.3891,-0.3863,-0.3851,-0.3828,-0.3804,-0.3769,-0.3754,-0.3736,-0.3733,-0.3729,-0.3728,-0.3728,-0.3729,-0.3741,-0.3731,-0.3731,-0.3731,-0.3731,-0.3731,0,-0.404,-0.4023,-0.4002,-0.3972,-0.3954,-0.3944,-0.3921,-0.3907,-0.3886,-0.3864,-0.3845,-0.3818,-0.3796,-0.3773,-0.3749,-0.3739,-0.3733,-0.3734,-0.3734,-0.3731,-0.3733,-0.3737,-0.3739,-0.3739,-0.3739,-0.3739,-0.3739,-0.3739,-0.4036,-0.4013,-0.3999,-0.3968,-0.395,-0.3927,-0.3914,-0.3896,-0.3879,-0.385,-0.3831,-0.3816,-0.3794,-0.3769,-0.3749,-0.3743,-0.3735,-0.3737,-0.3729,-0.3731,-0.3731,-0.373,-0.3734,-0.3735,-0.3735,-0.3729,-0.3728,-0.3728]},{"header":{"parameterUnit":"m.s-1","parameterCategory":1,"la1":30.2991,"la2":30.254,"lo1":-89.0895,"lo2":-89.0444,"dx":0.0017,"dy":0.0017,"nx":28,"ny":28,"refTime":"2023-01-10T15:00:00:Z","depth":0,"parameterNumber":3,"parameterNumberName":"V-component_of_WINDS"},"data":[0,0,0,0,0,0,0,0,0,0,0,0,0,0,0,0,0,0,0,0,0,0,0,0,0,0,0,0,0,0,0,0,0,0,0,0,0,0,0,0,0,0,0,0,0,0,0,0,0,0,0,0,0,0,0,0,0,0,2.7545,2.7544,0,2.7533,2.7533,2.7532,2.7488,2.7487,2.7486,2.7485,2.7473,2.7473,2.7474,0,0,0,0,0,0,0,0,0,0,0,0,0,2.7529,2.753,2.7545,2.7544,2.7544,2.7533,2.7533,2.7532,2.7488,2.7487,2.7485,2.7484,2.7473,2.7473,2.7474,0,0,0,0,0,0,0,0,0,0,0,0,0,2.7529,2.753,2.7545,2.7521,2.7518,2.7533,2.7533,2.7532,2.7488,2.7487,2.7485,2.7484,2.7472,2.7473,2.7474,2.7511,0,0,2.7477,2.7478,0,0,0,0,0,0,0,0,2.7529,2.7529,2.7524,2.7522,2.752,2.751,2.7523,2.7525,2.7488,2.75,2.7485,2.7483,2.7486,2.7486,2.7487,2.751,2.751,2.7477,2.7478,2.7478,2.7479,0,0,0,0,0,0,0,2.7529,2.753,2.754,2.7524,2.7522,2.7511,2.7509,2.7523,2.7502,2.7499,2.7495,2.7494,2.7485,2.7487,2.7487,2.751,2.7477,2.7478,2.7479,2.7479,2.7563,2.7565,0,0,0,0,0,0,2.7532,2.753,2.754,2.7539,2.7521,2.7512,2.751,2.7515,2.7502,2.7498,2.7496,2.7492,2.7486,2.7486,2.7486,2.7529,2.7478,2.7479,2.748,2.7562,2.7564,2.7566,0,0,0,0,0,0,2.7532,2.7534,2.7541,2.7534,2.7534,2.7514,2.752,2.7515,2.7517,2.7499,2.7495,2.7501,2.7484,2.7485,2.7505,2.7528,2.748,2.748,2.756,2.7562,2.7565,2.7614,0,0,0,0,0,0,2.7532,2.7534,2.7547,2.7534,2.7534,2.756,2.7521,2.7516,2.7519,2.7514,2.7504,2.75,2.7483,2.7504,2.7506,2.7528,2.7481,2.7558,2.7561,2.7564,2.7611,2.7618,2.7625,0,0,0,0,0,2.7532,2.7561,2.7548,2.755,2.7551,2.7561,2.7561,2.7541,2.7521,2.7534,2.7523,2.7501,2.7525,2.7507,2.7509,2.7531,2.7556,2.756,2.7564,2.7608,2.7617,2.7625,0,0,0,0,0,0,2.7577,2.7559,2.7544,2.7571,2.7568,2.7554,2.757,2.7551,2.7554,2.755,2.7524,2.7523,2.7547,2.7541,2.7521,2.7567,2.7537,2.7541,2.757,2.7578,2.7585,2.7586,2.7482,0,0,0,0,0,2.759,2.76,2.7584,2.7609,2.7609,2.759,2.7594,2.7578,2.7574,2.7573,2.7563,2.756,2.7567,2.7572,2.7578,2.761,2.7607,2.7626,2.7634,2.7639,2.7644,2.7661,2.767,2.7578,2.7578,2.7578,0,0,2.7618,2.7609,2.7617,2.7618,2.7614,2.7625,2.7589,2.7602,2.761,2.7575,2.7594,2.7587,2.7582,2.7609,2.762,2.7604,2.7668,2.7644,2.7649,2.765,2.7666,2.7674,2.7682,2.758,2.758,2.758,0,0,2.7673,2.7668,2.7688,2.7685,2.768,2.7667,2.7672,2.7661,2.7655,2.7674,2.7648,2.7657,2.767,2.7668,2.7668,2.7725,2.7704,2.7727,2.7764,2.7782,2.7789,2.7795,2.7816,2.7823,2.7731,2.7731,2.7732,0,2.7708,2.7723,2.7701,2.7717,2.7718,2.7687,2.7708,2.7706,2.7703,2.7705,2.7688,2.7704,2.7698,2.7725,2.7739,2.774,2.7745,2.7728,2.7789,2.7796,2.7801,2.7821,2.7828,2.7734,2.7734,2.7734,2.7733,0,2.7767,2.7778,2.7796,2.7794,2.7797,2.7816,2.7797,2.7803,2.7788,2.7778,2.7798,2.779,2.7794,2.7799,2.7784,2.7824,2.7814,2.7794,2.7763,2.7813,2.7831,2.7838,2.7738,2.7737,2.7737,2.7736,0,0,2.785,2.7836,2.7843,2.7842,2.7835,2.7843,2.786,2.7864,2.7871,2.787,2.7884,2.7896,2.7877,2.7878,2.7863,2.7878,2.7924,2.7855,2.7855,2.7869,2.7968,2.7984,2.7993,2.7911,2.7912,2.7913,2.7969,0,2.7903,2.7932,2.7913,2.7945,2.7956,2.7927,2.7942,2.7939,2.793,2.7938,2.7928,2.7937,2.7911,2.7912,2.7926,2.7916,2.7944,2.7911,2.7924,2.7925,2.7926,2.8002,2.8019,2.8071,2.7975,2.7977,2.7977,0,2.7969,2.7972,2.8005,2.7996,2.8,2.8013,2.8016,2.8024,2.8021,2.8013,2.8015,2.7996,2.8013,2.7983,2.8006,2.7985,2.7989,2.7985,2.7987,2.7987,2.7954,2.8005,2.8088,2.8096,2.7988,2.7987,2.7987,0,2.8027,2.8039,2.806,2.806,2.805,2.8061,2.8058,2.8053,2.8057,2.8059,2.8062,2.8066,2.8069,2.8073,2.8056,2.8036,2.8082,2.805,2.8077,2.8077,2.8087,2.8087,2.8172,2.809,2.809,2.809,2.809,0,2.8089,2.811,2.8087,2.81,2.8123,2.8102,2.8126,2.8119,2.8115,2.8127,2.8102,2.8114,2.8091,2.8101,2.8088,2.8109,2.811,2.8105,2.8102,2.8108,2.8108,2.811,2.8106,2.8092,2.8091,2.8091,2.8091,0,2.8158,2.8143,2.8164,2.8153,2.8151,2.8169,2.816,2.8172,2.8162,2.8177,2.818,2.8164,2.8174,2.8157,2.8165,2.8157,2.8187,2.8178,2.8188,2.8186,2.8213,2.8211,2.8302,2.8314,2.8224,2.8225,2.8225,0,2.8198,2.8214,2.8206,2.8212,2.821,2.822,2.8224,2.8204,2.821,2.8208,2.822,2.8228,2.8234,2.8251,2.824,2.8247,2.8237,2.8269,2.8238,2.8244,2.8238,2.8238,2.824,2.8276,2.8277,2.8277,2.8278,0,2.8272,2.8264,2.8271,2.8276,2.8282,2.8285,2.8286,2.8292,2.8271,2.8279,2.8289,2.8293,2.8302,2.831,2.8314,2.831,2.8291,2.8288,2.8295,2.8301,2.8307,2.8305,2.8206,2.8286,2.8285,2.8285,2.8284,2.8284,2.8328,2.8341,2.8338,2.8347,2.8345,2.8347,2.8358,2.835,2.8358,2.8364,2.8351,2.8365,2.8362,2.8365,2.8364,2.8374,2.836,2.837,2.8372,2.8375,2.8379,2.8305,2.8375,2.8375,2.8375,2.8374,2.8374,0,2.8401,2.8397,2.8406,2.8409,2.8416,2.8397,2.8398,2.8405,2.8417,2.8416,2.8423,2.8435,2.8443,2.8434,2.844,2.8451,2.8442,2.8453,2.8452,2.8452,2.8391,2.8385,2.846,2.846,2.846,2.846,2.846,2.846,2.844,2.8462,2.8453,2.8475,2.8471,2.8484,2.8486,2.8488,2.8487,2.8502,2.8509,2.8503,2.8499,2.8505,2.8512,2.8509,2.8513,2.8528,2.8522,2.8465,2.8456,2.8448,2.8442,2.8528,2.8529,2.8582,2.8582,2.8583]}]]